This is the latest recevied weather packets stored in our database for station/object WA2TQI. If no packets are shown the sender has not sent any weather packets the latest 10 day(s).
| Time | Temp. | Humidity | Pressure | Rain* | Wind** | Luminosity | Snow |
|---|---|---|---|---|---|---|---|
| 1777568517 | 14.44° C | 90% | 1009.2 hPa | 0 mm | - | - | - |
| 1777568213 | 13.89° C | 90% | 1008.9 hPa | 0 mm | - | - | - |
| 1777567911 | 13.89° C | 92% | 1008.7 hPa | 0 mm | - | - | - |
| 1777567607 | 13.33° C | 93% | 1008.9 hPa | 0 mm | - | - | - |
| 1777567304 | 13.33° C | 94% | 1009.1 hPa | 0 mm | - | - | - |
| 1777567003 | 12.78° C | 95% | 1009.1 hPa | 0 mm | - | - | - |
| 1777566700 | 12.78° C | 95% | 1009 hPa | 0 mm | - | - | - |
| 1777566397 | 12.78° C | 95% | 1008.9 hPa | 0 mm | - | - | - |
| 1777566094 | 13.33° C | 95% | 1008.8 hPa | 0 mm | - | - | - |
| 1777565790 | 13.33° C | 94% | 1008.9 hPa | 0 mm | - | - | - |
| 1777565486 | 13.33° C | 94% | 1009 hPa | 0 mm | - | - | - |
| 1777565182 | 13.33° C | 96% | 1009 hPa | 0 mm | - | - | - |
| 1777564878 | 12.78° C | 96% | 1009 hPa | 0 mm | - | - | - |
| 1777564574 | 12.78° C | 97% | 1009 hPa | 0 mm | - | - | - |
| 1777564270 | 12.78° C | 97% | 1009 hPa | 0 mm | - | - | - |
| 1777563966 | 12.78° C | 97% | 1009.1 hPa | 0 mm | - | - | - |
| 1777563663 | 12.78° C | 98% | 1009.2 hPa | 0 mm | - | - | - |
| 1777563361 | 12.78° C | 98% | 1009.2 hPa | 0 mm | - | - | - |
| 1777563058 | 12.78° C | 99% | 1009.4 hPa | 0 mm | - | - | - |
| 1777562754 | 12.22° C | 99% | 1009.5 hPa | 0 mm | - | - | - |
| 1777562452 | 12.22° C | 99% | 1009.5 hPa | 0 mm | - | - | - |
| 1777562144 | 12.22° C | 99% | 1009.6 hPa | 0 mm | - | - | - |
| 1777561842 | 12.78° C | 99% | 1009.6 hPa | 0 mm | - | - | - |
| 1777561538 | 12.78° C | 99% | 1009.6 hPa | 0 mm | - | - | - |
| 1777561234 | 12.78° C | 99% | 1009.7 hPa | 0 mm | - | - | - |
* Rain latest hour (hover to see other rain measurements)
** Current wind speed in m/s (hover to see current wind gust speed)